Location: Asheville, NC
(35.6000°N, 82.5500°W)
Time: 06:23:26
(UTC-05:00)

UWE-3 - Pass Details

Date: 14 February 2018
Orbit: 586 x 684 km, 97.6° (Epoch: 24 February)

Event Time Altitude Azimuth Distance (km) Brightness Sun altitude
Rises 18:33:29 0° 140° (SE) 3,026 ? -5.2°
Reaches altitude 10° 18:35:57 10° 129° (SE) 2,119 ? -5.7°
Maximum altitude 18:39:54 28° 71° (ENE) 1,278 ? -6.5°
Drops below altitude 10° 18:43:50 10° 13° (NNE) 2,126 ? -7.3°
Sets 18:46:19 0° 2° (N) 3,038 ? -7.8°
